owner,sensor,date,latitude,longitude,vertical_datum,direction_of_sea_water_velocity,sea_water_speed,upward_sea_water_velocity,qcFlag 
TABS,ioos:station:wmo:42050:1,2017-07-01T00:00:00Z,28.8425,-94.2433,2.0,76.93402608,3.007873003,-99999.0,'11133222,11111222,99999999' 
TABS,ioos:station:wmo:42050:1,2017-07-01T00:30:00Z,28.8425,-94.2433,2.0,54.51405623,9.026632816,-99999.0,'11133222,11111222,99999999' 
TABS,ioos:station:wmo:42050:1,2017-07-01T01:00:00Z,28.8425,-94.2433,2.0,51.88056286,11.09663913,-99999.0,'11111222,11111222,99999999' 
TABS,ioos:station:wmo:42050:1,2017-07-01T01:30:00Z,28.8425,-94.2433,2.0,50.35372922,11.51952256,-99999.0,'11111222,11111222,99999999' 
TABS,ioos:station:wmo:42050:1,2017-07-01T02:00:00Z,28.8425,-94.2433,2.0,47.27224433,10.52295111,-99999.0,'11111222,11111222,99999999' 
TABS,ioos:station:wmo:42050:1,2017-07-01T02:30:00Z,28.8425,-94.2433,2.0,60.70136893,11.62736858,-99999.0,'11111222,11111222,99999999' 
TABS,ioos:station:wmo:42050:1,2017-07-01T03:00:00Z,28.8425,-94.2433,2.0,51.64567095,12.89232718,-99999.0,'11111222,11111222,99999999' 
TABS,ioos:station:wmo:42050:1,2017-07-01T03:30:00Z,28.8425,-94.2433,2.0,43.82697952,12.43354334,-99999.0,'11111222,11111222,99999999' 
TABS,ioos:station:wmo:42050:1,2017-07-01T04:00:00Z,28.8425,-94.2433,2.0,47.77809479,13.42251839,-99999.0,'11111222,11111222,99999999' 
TABS,ioos:station:wmo:42050:1,2017-07-01T04:30:00Z,28.8425,-94.2433,2.0,46.30688801,13.33243039,-99999.0,'11111222,11111222,99999999' 
TABS,ioos:station:wmo:42050:1,2017-07-01T05:00:00Z,28.8425,-94.2433,2.0,45.70929893,15.99598075,-99999.0,'11111222,11111222,99999999' 
TABS,ioos:station:wmo:42050:1,2017-07-01T05:30:00Z,28.8425,-94.2433,2.0,31.97752022,17.35322737,-99999.0,'11111222,11111222,99999999' 
TABS,ioos:station:wmo:42050:1,2017-07-01T06:00:00Z,28.8425,-94.2433,2.0,26.11298305,18.69858283,-99999.0,'11111222,11111222,99999999' 
TABS,ioos:station:wmo:42050:1,2017-07-01T06:30:00Z,28.8425,-94.2433,2.0,32.74369506,20.65153263,-99999.0,'11111222,11111222,99999999' 
TABS,ioos:station:wmo:42050:1,2017-07-01T07:00:00Z,28.8425,-94.2433,2.0,69.70380416,22.19825218,-99999.0,'11111222,11111222,99999999' 
TABS,ioos:station:wmo:42050:1,2017-07-01T07:30:00Z,28.8425,-94.2433,2.0,63.423478,22.21757187,-99999.0,'11111222,11111222,99999999' 
TABS,ioos:station:wmo:42050:1,2017-07-01T08:00:00Z,28.8425,-94.2433,2.0,73.72460852,24.08520085,-99999.0,'11111222,11111222,99999999' 
TABS,ioos:station:wmo:42050:1,2017-07-01T08:30:00Z,28.8425,-94.2433,2.0,66.04249869,23.59258358,-99999.0,'11111222,11111222,99999999' 
TABS,ioos:station:wmo:42050:1,2017-07-01T09:00:00Z,28.8425,-94.2433,2.0,69.22547864,23.93625911,-99999.0,'11111222,11111222,99999999' 
TABS,ioos:station:wmo:42050:1,2017-07-01T09:30:00Z,28.8425,-94.2433,2.0,71.69560806,27.76486989,-99999.0,'11111222,11111222,99999999' 
TABS,ioos:station:wmo:42050:1,2017-07-01T10:00:00Z,28.8425,-94.2433,2.0,66.3243136,29.0118493,-99999.0,'11111222,11111222,99999999' 
TABS,ioos:station:wmo:42050:1,2017-07-01T10:30:00Z,28.8425,-94.2433,2.0,57.76564116,25.98499567,-99999.0,'11111222,11111222,99999999' 
TABS,ioos:station:wmo:42050:1,2017-07-01T11:00:00Z,28.8425,-94.2433,2.0,71.13524635,26.13379804,-99999.0,'11111222,11111222,99999999' 
TABS,ioos:station:wmo:42050:1,2017-07-01T11:30:00Z,28.8425,-94.2433,2.0,79.27250114,22.18776465,-99999.0,'11111222,11111222,99999999' 
TABS,ioos:station:wmo:42050:1,2017-07-01T12:00:00Z,28.8425,-94.2433,2.0,84.61330267,24.81960918,-99999.0,'11111222,11111222,99999999' 
TABS,ioos:station:wmo:42050:1,2017-07-01T12:30:00Z,28.8425,-94.2433,2.0,88.86931169,28.88562445,-99999.0,'11111222,11111222,99999999' 
TABS,ioos:station:wmo:42050:1,2017-07-01T13:00:00Z,28.8425,-94.2433,2.0,89.1649515,31.56335217,-99999.0,'11111222,11111222,99999999' 
TABS,ioos:station:wmo:42050:1,2017-07-01T13:30:00Z,28.8425,-94.2433,2.0,97.61852867,28.51168182,-99999.0,'11111222,11111222,99999999' 
TABS,ioos:station:wmo:42050:1,2017-07-01T14:00:00Z,28.8425,-94.2433,2.0,100.7538321,24.65295925,-99999.0,'11111222,11111222,99999999' 
TABS,ioos:station:wmo:42050:1,2017-07-01T14:30:00Z,28.8425,-94.2433,2.0,103.1118228,26.00805452,-99999.0,'11111222,11111222,99999999' 
TABS,ioos:station:wmo:42050:1,2017-07-01T15:00:00Z,28.8425,-94.2433,2.0,111.8260815,25.82093918,-99999.0,'11111222,11111222,99999999' 
TABS,ioos:station:wmo:42050:1,2017-07-01T15:30:00Z,28.8425,-94.2433,2.0,118.5952206,24.11100371,-99999.0,'11111222,11111222,99999999' 
TABS,ioos:station:wmo:42050:1,2017-07-01T16:00:00Z,28.8425,-94.2433,2.0,124.3002487,22.39451719,-99999.0,'11111222,11111222,99999999' 
TABS,ioos:station:wmo:42050:1,2017-07-01T16:30:00Z,28.8425,-94.2433,2.0,130.506106,18.95215555,-99999.0,'11111222,11111222,99999999' 
TABS,ioos:station:wmo:42050:1,2017-07-01T17:00:00Z,28.8425,-94.2433,2.0,134.7123647,21.13568783,-99999.0,'11111222,11111222,99999999' 
TABS,ioos:station:wmo:42050:1,2017-07-01T17:30:00Z,28.8425,-94.2433,2.0,150.1615756,15.97817574,-99999.0,'11111222,11111222,99999999' 
TABS,ioos:station:wmo:42050:1,2017-07-01T18:00:00Z,28.8425,-94.2433,2.0,162.7513766,16.18800791,-99999.0,'11111222,11111222,99999999' 
TABS,ioos:station:wmo:42050:1,2017-07-01T18:30:00Z,28.8425,-94.2433,2.0,168.3987637,16.21116899,-99999.0,'11111222,11111222,99999999' 
TABS,ioos:station:wmo:42050:1,2017-07-01T19:00:00Z,28.8425,-94.2433,2.0,173.9305921,14.94376124,-99999.0,'11111222,11111222,99999999' 
TABS,ioos:station:wmo:42050:1,2017-07-01T19:30:00Z,28.8425,-94.2433,2.0,178.1484537,19.81034073,-99999.0,'11111222,11111222,99999999' 
TABS,ioos:station:wmo:42050:1,2017-07-01T20:00:00Z,28.8425,-94.2433,2.0,188.5716121,17.24260421,-99999.0,'11111222,11111222,99999999' 
TABS,ioos:station:wmo:42050:1,2017-07-01T20:30:00Z,28.8425,-94.2433,2.0,183.7266263,21.84619875,-99999.0,'11111222,11111222,99999999' 
TABS,ioos:station:wmo:42050:1,2017-07-01T21:00:00Z,28.8425,-94.2433,2.0,188.8502766,21.70847991,-99999.0,'11111222,11111222,99999999' 
TABS,ioos:station:wmo:42050:1,2017-07-01T21:30:00Z,28.8425,-94.2433,2.0,223.6791334,30.68244123,-99999.0,'11111222,11111222,99999999' 
TABS,ioos:station:wmo:42050:1,2017-07-01T22:00:00Z,28.8425,-94.2433,2.0,229.2250345,31.19040397,-99999.0,'11111222,11111222,99999999' 
TABS,ioos:station:wmo:42050:1,2017-07-01T22:30:00Z,28.8425,-94.2433,2.0,234.0915388,30.0262302,-99999.0,'11111222,11111222,99999999' 
TABS,ioos:station:wmo:42050:1,2017-07-01T23:00:00Z,28.8425,-94.2433,2.0,253.4303751,21.95151931,-99999.0,'11111222,11111222,99999999' 
TABS,ioos:station:wmo:42050:1,2017-07-01T23:30:00Z,28.8425,-94.2433,2.0,260.0883019,18.88180341,-99999.0,'11111222,11111222,99999999' 
TABS,ioos:station:wmo:42050:1,2017-07-02T00:00:00Z,28.8425,-94.2433,2.0,263.6561954,19.73080079,-99999.0,'11111222,11111222,99999999' 
TABS,ioos:station:wmo:42050:1,2017-07-02T00:30:00Z,28.8425,-94.2433,2.0,262.2241632,15.07863389,-99999.0,'11111222,11111222,99999999' 
TABS,ioos:station:wmo:42050:1,2017-07-02T01:00:00Z,28.8425,-94.2433,2.0,276.541065,13.25628153,-99999.0,'11111222,11111222,99999999' 
TABS,ioos:station:wmo:42050:1,2017-07-02T01:30:00Z,28.8425,-94.2433,2.0,284.3803154,9.704024938,-99999.0,'11133222,11111222,99999999' 
TABS,ioos:station:wmo:42050:1,2017-07-02T02:00:00Z,28.8425,-94.2433,2.0,286.2073827,18.95320817,-99999.0,'11111222,11111222,99999999' 
TABS,ioos:station:wmo:42050:1,2017-07-02T02:30:00Z,28.8425,-94.2433,2.0,292.240866,16.96191027,-99999.0,'11111222,11111222,99999999' 
TABS,ioos:station:wmo:42050:1,2017-07-02T03:00:00Z,28.8425,-94.2433,2.0,299.7856244,17.59433147,-99999.0,'11111222,11111222,99999999' 
TABS,ioos:station:wmo:42050:1,2017-07-02T03:30:00Z,28.8425,-94.2433,2.0,296.5847144,13.27330027,-99999.0,'11111222,11111222,99999999' 
TABS,ioos:station:wmo:42050:1,2017-07-02T04:00:00Z,28.8425,-94.2433,2.0,313.7691197,11.18901247,-99999.0,'11111222,11111222,99999999' 
TABS,ioos:station:wmo:42050:1,2017-07-02T04:30:00Z,28.8425,-94.2433,2.0,308.9468123,9.051944542,-99999.0,'11133222,11111222,99999999' 
TABS,ioos:station:wmo:42050:1,2017-07-02T05:00:00Z,28.8425,-94.2433,2.0,350.6308473,6.08112654,-99999.0,'11133222,11111222,99999999' 
TABS,ioos:station:wmo:42050:1,2017-07-02T05:30:00Z,28.8425,-94.2433,2.0,36.16987594,7.692574342,-99999.0,'11133222,11111222,99999999' 
TABS,ioos:station:wmo:42050:1,2017-07-02T06:00:00Z,28.8425,-94.2433,2.0,18.55523265,1.508409759,-99999.0,'11133222,11111222,99999999' 
TABS,ioos:station:wmo:42050:1,2017-07-02T06:30:00Z,28.8425,-94.2433,2.0,134.4790396,3.111398399,-99999.0,'11133222,11111222,99999999' 
TABS,ioos:station:wmo:42050:1,2017-07-02T07:00:00Z,28.8425,-94.2433,2.0,200.0369529,4.523825815,-99999.0,'11133222,11111222,99999999' 
TABS,ioos:station:wmo:42050:1,2017-07-02T07:30:00Z,28.8425,-94.2433,2.0,166.746971,10.64345808,-99999.0,'11111222,11111222,99999999' 
TABS,ioos:station:wmo:42050:1,2017-07-02T08:00:00Z,28.8425,-94.2433,2.0,168.0256537,8.627728554,-99999.0,'11133222,11111222,99999999' 
TABS,ioos:station:wmo:42050:1,2017-07-02T08:30:00Z,28.8425,-94.2433,2.0,170.9201416,6.40019531,-99999.0,'11133222,11111222,99999999' 
TABS,ioos:station:wmo:42050:1,2017-07-02T09:00:00Z,28.8425,-94.2433,2.0,160.7285105,8.665564032,-99999.0,'11133222,11111222,99999999' 
TABS,ioos:station:wmo:42050:1,2017-07-02T09:30:00Z,28.8425,-94.2433,2.0,170.9157298,10.95743127,-99999.0,'11111222,11111222,99999999' 
TABS,ioos:station:wmo:42050:1,2017-07-02T10:00:00Z,28.8425,-94.2433,2.0,185.6592581,11.15437134,-99999.0,'11111222,11111222,99999999' 
TABS,ioos:station:wmo:42050:1,2017-07-02T10:30:00Z,28.8425,-94.2433,2.0,178.0982421,7.534148923,-99999.0,'11133222,11111222,99999999' 
TABS,ioos:station:wmo:42050:1,2017-07-02T11:00:00Z,28.8425,-94.2433,2.0,175.6413989,7.632070492,-99999.0,'11133222,11111222,99999999' 
TABS,ioos:station:wmo:42050:1,2017-07-02T11:30:00Z,28.8425,-94.2433,2.0,88.76537118,2.320538731,-99999.0,'11133222,11111222,99999999' 
TABS,ioos:station:wmo:42050:1,2017-07-02T12:00:00Z,28.8425,-94.2433,2.0,132.8637473,3.983779612,-99999.0,'11133222,11111222,99999999' 
TABS,ioos:station:wmo:42050:1,2017-07-02T12:30:00Z,28.8425,-94.2433,2.0,136.1435761,3.896934693,-99999.0,'11133222,11111222,99999999' 
TABS,ioos:station:wmo:42050:1,2017-07-02T13:00:00Z,28.8425,-94.2433,2.0,114.0888822,4.140591745,-99999.0,'11133222,11111222,99999999' 
TABS,ioos:station:wmo:42050:1,2017-07-02T13:30:00Z,28.8425,-94.2433,2.0,126.5862995,4.446054431,-99999.0,'11133222,11111222,99999999' 
TABS,ioos:station:wmo:42050:1,2017-07-02T14:00:00Z,28.8425,-94.2433,2.0,114.1209267,7.340980861,-99999.0,'11133222,11111222,99999999' 
TABS,ioos:station:wmo:42050:1,2017-07-02T14:30:00Z,28.8425,-94.2433,2.0,132.030556,10.78371457,-99999.0,'11111222,11111222,99999999' 
TABS,ioos:station:wmo:42050:1,2017-07-02T15:00:00Z,28.8425,-94.2433,2.0,150.880298,11.13774214,-99999.0,'11111222,11111222,99999999' 
TABS,ioos:station:wmo:42050:1,2017-07-02T15:30:00Z,28.8425,-94.2433,2.0,167.8283598,14.08665326,-99999.0,'11111222,11111222,99999999' 
TABS,ioos:station:wmo:42050:1,2017-07-02T16:00:00Z,28.8425,-94.2433,2.0,156.1625624,16.72685266,-99999.0,'11111222,11111222,99999999' 
TABS,ioos:station:wmo:42050:1,2017-07-02T16:30:00Z,28.8425,-94.2433,2.0,172.3448142,17.5665506,-99999.0,'11111222,11111222,99999999' 
TABS,ioos:station:wmo:42050:1,2017-07-02T17:00:00Z,28.8425,-94.2433,2.0,172.4448436,20.99222951,-99999.0,'11111222,11111222,99999999' 
TABS,ioos:station:wmo:42050:1,2017-07-02T17:30:00Z,28.8425,-94.2433,2.0,175.1899371,19.55887778,-99999.0,'11111222,11111222,99999999' 
TABS,ioos:station:wmo:42050:1,2017-07-02T18:00:00Z,28.8425,-94.2433,2.0,189.6173429,26.69520556,-99999.0,'11111222,11111222,99999999' 
TABS,ioos:station:wmo:42050:1,2017-07-02T18:30:00Z,28.8425,-94.2433,2.0,195.3108368,34.12108146,-99999.0,'11111222,11111222,99999999' 
TABS,ioos:station:wmo:42050:1,2017-07-02T19:00:00Z,28.8425,-94.2433,2.0,206.7600364,30.18262083,-99999.0,'11111222,11111222,99999999' 
TABS,ioos:station:wmo:42050:1,2017-07-02T19:30:00Z,28.8425,-94.2433,2.0,197.5552973,27.81550826,-99999.0,'11111222,11111222,99999999' 
TABS,ioos:station:wmo:42050:1,2017-07-02T20:00:00Z,28.8425,-94.2433,2.0,210.3315376,29.54414324,-99999.0,'11111222,11111222,99999999' 
TABS,ioos:station:wmo:42050:1,2017-07-02T20:30:00Z,28.8425,-94.2433,2.0,213.3114282,25.20057936,-99999.0,'11111222,11111222,99999999' 
TABS,ioos:station:wmo:42050:1,2017-07-02T21:00:00Z,28.8425,-94.2433,2.0,227.1807277,26.0120895,-99999.0,'11111222,11111222,99999999' 
TABS,ioos:station:wmo:42050:1,2017-07-02T21:30:00Z,28.8425,-94.2433,2.0,236.4551952,28.37578017,-99999.0,'11111222,11111222,99999999' 
TABS,ioos:station:wmo:42050:1,2017-07-02T22:00:00Z,28.8425,-94.2433,2.0,238.4390017,24.03511598,-99999.0,'11111222,11111222,99999999' 
TABS,ioos:station:wmo:42050:1,2017-07-02T22:30:00Z,28.8425,-94.2433,2.0,240.8715899,25.00188993,-99999.0,'11111222,11111222,99999999' 
TABS,ioos:station:wmo:42050:1,2017-07-02T23:00:00Z,28.8425,-94.2433,2.0,241.1196853,26.12965365,-99999.0,'11111222,11111222,99999999' 
TABS,ioos:station:wmo:42050:1,2017-07-02T23:30:00Z,28.8425,-94.2433,2.0,240.9581571,29.70483631,-99999.0,'11111222,11111222,99999999' 
TABS,ioos:station:wmo:42050:1,2017-07-03T00:00:00Z,28.8425,-94.2433,2.0,244.747829,28.87969529,-99999.0,'11111222,11111222,99999999' 
TABS,ioos:station:wmo:42050:1,2017-07-03T00:30:00Z,28.8425,-94.2433,2.0,247.7165616,27.6120155,-99999.0,'11111222,11111222,99999999' 
TABS,ioos:station:wmo:42050:1,2017-07-03T01:00:00Z,28.8425,-94.2433,2.0,252.3227021,22.22959514,-99999.0,'11111222,11111222,99999999' 
TABS,ioos:station:wmo:42050:1,2017-07-03T01:30:00Z,28.8425,-94.2433,2.0,251.9713222,16.93126103,-99999.0,'11111222,11111222,99999999' 
TABS,ioos:station:wmo:42050:1,2017-07-03T02:00:00Z,28.8425,-94.2433,2.0,256.9565329,23.92730867,-99999.0,'11111222,11111222,99999999' 
TABS,ioos:station:wmo:42050:1,2017-07-03T02:30:00Z,28.8425,-94.2433,2.0,268.0538725,22.97324531,-99999.0,'11111222,11111222,99999999' 
TABS,ioos:station:wmo:42050:1,2017-07-03T03:00:00Z,28.8425,-94.2433,2.0,182.3109156,2.231815405,-99999.0,'11133222,11111222,99999999' 
TABS,ioos:station:wmo:42050:1,2017-07-03T03:30:00Z,28.8425,-94.2433,2.0,283.3387366,19.11565066,-99999.0,'11111222,11111222,99999999' 
TABS,ioos:station:wmo:42050:1,2017-07-03T04:00:00Z,28.8425,-94.2433,2.0,282.5751751,18.92393458,-99999.0,'11111222,11111222,99999999' 
TABS,ioos:station:wmo:42050:1,2017-07-03T04:30:00Z,28.8425,-94.2433,2.0,283.0616117,13.54029911,-99999.0,'11111222,11111222,99999999' 
TABS,ioos:station:wmo:42050:1,2017-07-03T05:00:00Z,28.8425,-94.2433,2.0,280.4016945,14.34573804,-99999.0,'11111222,11111222,99999999' 
TABS,ioos:station:wmo:42050:1,2017-07-03T05:30:00Z,28.8425,-94.2433,2.0,291.5632218,10.2578994,-99999.0,'11111222,11111222,99999999' 
TABS,ioos:station:wmo:42050:1,2017-07-03T06:00:00Z,28.8425,-94.2433,2.0,282.1890256,10.2306207,-99999.0,'11111222,11111222,99999999' 
TABS,ioos:station:wmo:42050:1,2017-07-03T06:30:00Z,28.8425,-94.2433,2.0,308.649922,8.758224706,-99999.0,'11133222,11111222,99999999' 
TABS,ioos:station:wmo:42050:1,2017-07-03T07:00:00Z,28.8425,-94.2433,2.0,340.8320269,13.09606429,-99999.0,'11111222,11111222,99999999' 
TABS,ioos:station:wmo:42050:1,2017-07-03T07:30:00Z,28.8425,-94.2433,2.0,352.7289555,9.718153117,-99999.0,'11133222,11111222,99999999' 
TABS,ioos:station:wmo:42050:1,2017-07-03T08:00:00Z,28.8425,-94.2433,2.0,17.52573785,7.571446361,-99999.0,'11133222,11111222,99999999' 
TABS,ioos:station:wmo:42050:1,2017-07-03T08:30:00Z,28.8425,-94.2433,2.0,41.07039542,13.51630497,-99999.0,'11111222,11111222,99999999' 
TABS,ioos:station:wmo:42050:1,2017-07-03T09:00:00Z,28.8425,-94.2433,2.0,74.6583023,11.60349085,-99999.0,'11111222,11111222,99999999' 
TABS,ioos:station:wmo:42050:1,2017-07-03T09:30:00Z,28.8425,-94.2433,2.0,88.65123465,15.29423748,-99999.0,'11111222,11111222,99999999' 
TABS,ioos:station:wmo:42050:1,2017-07-03T10:00:00Z,28.8425,-94.2433,2.0,96.23272373,16.48745584,-99999.0,'11111222,11111222,99999999' 
TABS,ioos:station:wmo:42050:1,2017-07-03T10:30:00Z,28.8425,-94.2433,2.0,105.2856552,14.79333972,-99999.0,'11111222,11111222,99999999' 
TABS,ioos:station:wmo:42050:1,2017-07-03T11:00:00Z,28.8425,-94.2433,2.0,103.7025829,12.49564724,-99999.0,'11111222,11111222,99999999' 
TABS,ioos:station:wmo:42050:1,2017-07-03T11:30:00Z,28.8425,-94.2433,2.0,116.2235411,18.76094347,-99999.0,'11111222,11111222,99999999' 
TABS,ioos:station:wmo:42050:1,2017-07-03T12:00:00Z,28.8425,-94.2433,2.0,117.4691178,23.24011188,-99999.0,'11111222,11111222,99999999' 
TABS,ioos:station:wmo:42050:1,2017-07-03T12:30:00Z,28.8425,-94.2433,2.0,119.7362767,24.97935548,-99999.0,'11111222,11111222,99999999' 
TABS,ioos:station:wmo:42050:1,2017-07-03T13:00:00Z,28.8425,-94.2433,2.0,116.002111,21.39573088,-99999.0,'11111222,11111222,99999999' 
TABS,ioos:station:wmo:42050:1,2017-07-03T13:30:00Z,28.8425,-94.2433,2.0,117.787956,22.62969067,-99999.0,'11111222,11111222,99999999' 
TABS,ioos:station:wmo:42050:1,2017-07-03T14:00:00Z,28.8425,-94.2433,2.0,119.208703,23.46343751,-99999.0,'11111222,11111222,99999999' 
TABS,ioos:station:wmo:42050:1,2017-07-03T14:30:00Z,28.8425,-94.2433,2.0,126.6867589,21.91011182,-99999.0,'11111222,11111222,99999999' 
TABS,ioos:station:wmo:42050:1,2017-07-03T15:00:00Z,28.8425,-94.2433,2.0,125.8656798,21.11324229,-99999.0,'11111222,11111222,99999999' 
TABS,ioos:station:wmo:42050:1,2017-07-03T15:30:00Z,28.8425,-94.2433,2.0,130.8283944,23.52412379,-99999.0,'11111222,11111222,99999999' 
TABS,ioos:station:wmo:42050:1,2017-07-03T16:00:00Z,28.8425,-94.2433,2.0,143.9138365,24.41428475,-99999.0,'11111222,11111222,99999999' 
TABS,ioos:station:wmo:42050:1,2017-07-03T16:30:00Z,28.8425,-94.2433,2.0,151.6282316,27.37860844,-99999.0,'11111222,11111222,99999999' 
TABS,ioos:station:wmo:42050:1,2017-07-03T17:00:00Z,28.8425,-94.2433,2.0,150.0774418,24.81822919,-99999.0,'11111222,11111222,99999999' 
TABS,ioos:station:wmo:42050:1,2017-07-03T17:30:00Z,28.8425,-94.2433,2.0,159.7717089,25.97185592,-99999.0,'11111222,11111222,99999999' 
TABS,ioos:station:wmo:42050:1,2017-07-03T18:00:00Z,28.8425,-94.2433,2.0,162.920392,30.74594282,-99999.0,'11111222,11111222,99999999' 
TABS,ioos:station:wmo:42050:1,2017-07-03T18:30:00Z,28.8425,-94.2433,2.0,170.1200205,31.58845992,-99999.0,'11111222,11111222,99999999' 
TABS,ioos:station:wmo:42050:1,2017-07-03T19:00:00Z,28.8425,-94.2433,2.0,166.8114781,34.58209074,-99999.0,'11111222,11111222,99999999' 
TABS,ioos:station:wmo:42050:1,2017-07-03T19:30:00Z,28.8425,-94.2433,2.0,163.7850107,35.34601109,-99999.0,'11111222,11111222,99999999' 
TABS,ioos:station:wmo:42050:1,2017-07-03T20:00:00Z,28.8425,-94.2433,2.0,167.1037264,40.10150371,-99999.0,'11111222,11111222,99999999' 
TABS,ioos:station:wmo:42050:1,2017-07-03T20:30:00Z,28.8425,-94.2433,2.0,162.993641,36.65270658,-99999.0,'11111222,11111222,99999999' 
TABS,ioos:station:wmo:42050:1,2017-07-03T21:00:00Z,28.8425,-94.2433,2.0,161.3454378,36.32851222,-99999.0,'11111222,11111222,99999999' 
TABS,ioos:station:wmo:42050:1,2017-07-03T21:30:00Z,28.8425,-94.2433,2.0,166.4502036,35.98145772,-99999.0,'11111222,11111222,99999999' 
TABS,ioos:station:wmo:42050:1,2017-07-03T22:00:00Z,28.8425,-94.2433,2.0,171.7822536,34.2819909,-99999.0,'11111222,11111222,99999999' 
TABS,ioos:station:wmo:42050:1,2017-07-03T22:30:00Z,28.8425,-94.2433,2.0,173.2523138,32.00165621,-99999.0,'11111222,11111222,99999999' 
TABS,ioos:station:wmo:42050:1,2017-07-03T23:00:00Z,28.8425,-94.2433,2.0,175.1645884,35.23539414,-99999.0,'11111222,11111222,99999999' 
TABS,ioos:station:wmo:42050:1,2017-07-03T23:30:00Z,28.8425,-94.2433,2.0,175.8318302,36.1857016,-99999.0,'11111222,11111222,99999999' 
TABS,ioos:station:wmo:42050:1,2017-07-04T00:00:00Z,28.8425,-94.2433,2.0,167.9163225,46.19348222,-99999.0,'11111222,11111222,99999999' 
TABS,ioos:station:wmo:42050:1,2017-07-04T00:30:00Z,28.8425,-94.2433,2.0,182.8756933,57.20204367,-99999.0,'11111222,11111222,99999999' 
TABS,ioos:station:wmo:42050:1,2017-07-04T01:00:00Z,28.8425,-94.2433,2.0,196.7908509,48.39327743,-99999.0,'11111222,11111222,99999999' 
TABS,ioos:station:wmo:42050:1,2017-07-04T01:30:00Z,28.8425,-94.2433,2.0,219.9804343,23.03394235,-99999.0,'11111222,11111222,99999999' 
TABS,ioos:station:wmo:42050:1,2017-07-04T02:00:00Z,28.8425,-94.2433,2.0,233.4960334,37.8567735,-99999.0,'11111222,11111222,99999999' 
TABS,ioos:station:wmo:42050:1,2017-07-04T02:30:00Z,28.8425,-94.2433,2.0,244.3941668,36.05047156,-99999.0,'11111222,11111222,99999999' 
TABS,ioos:station:wmo:42050:1,2017-07-04T03:00:00Z,28.8425,-94.2433,2.0,254.2994312,34.66325576,-99999.0,'11111222,11111222,99999999' 
TABS,ioos:station:wmo:42050:1,2017-07-04T03:30:00Z,28.8425,-94.2433,2.0,266.6959504,31.0616194,-99999.0,'11111222,11111222,99999999' 
TABS,ioos:station:wmo:42050:1,2017-07-04T04:00:00Z,28.8425,-94.2433,2.0,278.4189817,27.52660168,-99999.0,'11111222,11111222,99999999' 
TABS,ioos:station:wmo:42050:1,2017-07-04T04:30:00Z,28.8425,-94.2433,2.0,289.5305313,26.80203724,-99999.0,'11111222,11111222,99999999' 
TABS,ioos:station:wmo:42050:1,2017-07-04T05:00:00Z,28.8425,-94.2433,2.0,304.0983414,24.15225869,-99999.0,'11111222,11111222,99999999' 
TABS,ioos:station:wmo:42050:1,2017-07-04T05:30:00Z,28.8425,-94.2433,2.0,317.4022146,20.07825939,-99999.0,'11111222,11111222,99999999' 
TABS,ioos:station:wmo:42050:1,2017-07-04T06:00:00Z,28.8425,-94.2433,2.0,325.8897108,19.6507837,-99999.0,'11111222,11111222,99999999' 
TABS,ioos:station:wmo:42050:1,2017-07-04T06:30:00Z,28.8425,-94.2433,2.0,341.4846446,20.21646111,-99999.0,'11111222,11111222,99999999' 
TABS,ioos:station:wmo:42050:1,2017-07-04T07:00:00Z,28.8425,-94.2433,2.0,348.1915307,17.34712945,-99999.0,'11111222,11111222,99999999' 
TABS,ioos:station:wmo:42050:1,2017-07-04T07:30:00Z,28.8425,-94.2433,2.0,358.4827999,13.59476738,-99999.0,'11111222,11111222,99999999' 
TABS,ioos:station:wmo:42050:1,2017-07-04T08:00:00Z,28.8425,-94.2433,2.0,20.70572989,9.418333186,-99999.0,'11133222,11111222,99999999' 
TABS,ioos:station:wmo:42050:1,2017-07-04T08:30:00Z,28.8425,-94.2433,2.0,23.18982356,8.431186156,-99999.0,'11133222,11111222,99999999' 
TABS,ioos:station:wmo:42050:1,2017-07-04T09:00:00Z,28.8425,-94.2433,2.0,53.47272923,11.37420327,-99999.0,'11111222,11111222,99999999' 
TABS,ioos:station:wmo:42050:1,2017-07-04T09:30:00Z,28.8425,-94.2433,2.0,60.90023045,14.76354971,-99999.0,'11111222,11111222,99999999' 
TABS,ioos:station:wmo:42050:1,2017-07-04T10:00:00Z,28.8425,-94.2433,2.0,74.2982086,15.18672117,-99999.0,'11111222,11111222,99999999' 
TABS,ioos:station:wmo:42050:1,2017-07-04T10:30:00Z,28.8425,-94.2433,2.0,86.07771785,15.49629633,-99999.0,'11111222,11111222,99999999' 
TABS,ioos:station:wmo:42050:1,2017-07-05T00:30:00Z,28.8425,-94.2433,2.0,209.4033525,30.61355582,-99999.0,'11111222,11111222,99999999' 
TABS,ioos:station:wmo:42050:1,2017-07-05T01:00:00Z,28.8425,-94.2433,2.0,215.0684959,28.12589554,-99999.0,'11111222,11111222,99999999' 
TABS,ioos:station:wmo:42050:1,2017-07-05T01:30:00Z,28.8425,-94.2433,2.0,231.9704954,20.85826934,-99999.0,'11111222,11111222,99999999' 
TABS,ioos:station:wmo:42050:1,2017-07-05T02:00:00Z,28.8425,-94.2433,2.0,248.2276709,14.45081313,-99999.0,'11111222,11111222,99999999' 
TABS,ioos:station:wmo:42050:1,2017-07-05T02:30:00Z,28.8425,-94.2433,2.0,268.3602522,23.76972865,-99999.0,'11111222,11111222,99999999' 
TABS,ioos:station:wmo:42050:1,2017-07-05T03:00:00Z,28.8425,-94.2433,2.0,285.6417427,24.8502495,-99999.0,'11111222,11111222,99999999' 
TABS,ioos:station:wmo:42050:1,2017-07-05T03:30:00Z,28.8425,-94.2433,2.0,290.9487483,23.07520314,-99999.0,'11111222,11111222,99999999' 
TABS,ioos:station:wmo:42050:1,2017-07-05T04:00:00Z,28.8425,-94.2433,2.0,300.8856435,26.29933269,-99999.0,'11111222,11111222,99999999' 
TABS,ioos:station:wmo:42050:1,2017-07-05T04:30:00Z,28.8425,-94.2433,2.0,310.4426805,25.80614655,-99999.0,'11111222,11111222,99999999' 
TABS,ioos:station:wmo:42050:1,2017-07-05T05:00:00Z,28.8425,-94.2433,2.0,314.1505597,27.17710249,-99999.0,'11111222,11111222,99999999' 
TABS,ioos:station:wmo:42050:1,2017-07-05T05:30:00Z,28.8425,-94.2433,2.0,314.305857,28.0034855,-99999.0,'11111222,11111222,99999999' 